Myrtle Beach, SC

9:28 PM EDT on July 21, 2017 (GMT -0400)
Myrtle Beach International

Weather History for KMYR - October, 2011

Change the Weather History Date:

Monday, October 31, 2011

  Actual Average Record
Temperature  
Mean Temperature 55 °F -  
Max Temperature 64 °F 69 °F 85 °F (1950)
Min Temperature 46 °F 48 °F 32 °F (1952)
Degree Days  
Heating Degree Days 10    
Growing Degree Days 5 (Base 50)    
Moisture  
Dew Point 41 °F    
Average Humidity 68    
Maximum Humidity 77    
Minimum Humidity 58    
Precipitation  
Precipitation 0.00 in - - ()
Sea Level Pressure  
Sea Level Pressure 30.22 in    
Wind  
Wind Speed 11 mph (NNE)    
Max Wind Speed 21 mph    
Max Gust Speed 24 mph    
Visibility 10 miles    
Events      
Averages and records for this station are not official NWS values.
T = Trace of Precipitation, MM = Missing Value Source: NWS Daily Summary

Daily Weather History Graph

Daily Weather History Graph

Search for Another Location

Airport or City:

Trip Planner

Search our weather history database for the weather conditions in past years. The results will help you decide how hot, cold, wet, or windy it might be!

Date:

Astronomy

Oct. 31, 2011 Rise Set
Actual Time 7:33 AM EDT 6:24 PM EDT
Civil Twilight 7:07 AM EDT 6:50 PM EDT
Nautical Twilight 6:38 AM EDT 7:19 PM EDT
Astronomical Twilight 6:09 AM EDT 7:48 PM EDT
Moon 12:33 PM EDT (10/31) 11:03 PM EDT (10/31)
Length of Visible Light 11h 42m
Length of Day
10h 50m
Waxing Crescent, 29% of the Moon is Illuminated
Oct 31
Waxing Crescent
Nov 2
First Quarter
Nov 10
Full
Nov 18
Last Quarter
Nov 25
New

Hourly Weather History & Observations

Time (EDT) Temp. Windchill Dew Point Humidity Pressure Visibility Wind Dir Wind Speed Gust Speed Precip Events Conditions
12:15 AM 46.4 °F 42.4 °F 35.6 °F 66% 30.30 in 10.0 mi North 8.1 mph - N/A   Clear
12:35 AM 46.4 °F 42.4 °F 33.8 °F 62% 30.30 in 10.0 mi NNE 8.1 mph - N/A   Clear
12:55 AM 46.4 °F 42.4 °F 33.8 °F 62% 30.30 in 10.0 mi NNE 8.1 mph - N/A   Clear
1:15 AM 48.2 °F - 33.8 °F 58% 30.30 in 10.0 mi NNE 10.4 mph - N/A   Clear
1:35 AM 46.4 °F 41.9 °F 33.8 °F 62% 30.30 in 10.0 mi NNE 9.2 mph - N/A   Clear
1:55 AM 46.4 °F 42.4 °F 33.8 °F 62% 30.29 in 10.0 mi NNE 8.1 mph - N/A   Clear
2:15 AM 46.4 °F 41.9 °F 35.6 °F 66% 30.29 in 10.0 mi North 9.2 mph - N/A   Clear
2:35 AM 46.4 °F 41.1 °F 35.6 °F 66% 30.28 in 10.0 mi NNE 11.5 mph - N/A   Clear
2:55 AM 46.4 °F 41.5 °F 35.6 °F 66% 30.28 in 10.0 mi NNE 10.4 mph - N/A   Clear
3:15 AM 46.4 °F 41.1 °F 35.6 °F 66% 30.28 in 10.0 mi North 11.5 mph - N/A   Clear
3:35 AM 46.4 °F 41.1 °F 35.6 °F 66% 30.27 in 10.0 mi North 11.5 mph - N/A   Clear
3:55 AM 46.4 °F 41.5 °F 33.8 °F 62% 30.27 in 10.0 mi North 10.4 mph - N/A   Clear
4:15 AM 46.4 °F 41.5 °F 35.6 °F 66% 30.26 in 10.0 mi NNE 10.4 mph - N/A   Clear
4:35 AM 46.4 °F 41.9 °F 35.6 °F 66% 30.27 in 10.0 mi North 9.2 mph - N/A   Clear
4:55 AM 46.4 °F 41.1 °F 35.6 °F 66% 30.27 in 10.0 mi North 11.5 mph - N/A   Scattered Clouds
5:15 AM 46.4 °F 40.7 °F 35.6 °F 66% 30.26 in 10.0 mi NNE 12.7 mph - N/A   Scattered Clouds
5:35 AM 46.4 °F 41.1 °F 35.6 °F 66% 30.27 in 10.0 mi NNE 11.5 mph - N/A   Scattered Clouds
5:55 AM 46.4 °F 40.4 °F 35.6 °F 66% 30.26 in 10.0 mi North 13.8 mph - N/A   Scattered Clouds
6:50 AM 46.4 °F 40.4 °F 35.6 °F 66% 30.28 in 10.0 mi NNE 13.8 mph - N/A   Scattered Clouds
7:50 AM 46.4 °F 40.4 °F 35.6 °F 66% 30.26 in 10.0 mi NNE 13.8 mph - N/A   Scattered Clouds
8:50 AM 46.4 °F 41.1 °F 35.6 °F 66% 30.25 in 10.0 mi NNE 11.5 mph - N/A   Scattered Clouds
9:45 AM 51.8 °F - 39.2 °F 62% 30.25 in 10.0 mi NE 11.5 mph - N/A   Scattered Clouds
10:50 AM 57.2 °F - 46.4 °F 67% 30.22 in 10.0 mi ENE 20.7 mph - N/A   Partly Cloudy
11:55 AM 57.2 °F - 48.2 °F 72% 30.20 in 10.0 mi ENE 17.3 mph - N/A   Scattered Clouds
12:45 PM 59.0 °F - 50.0 °F 72% 30.18 in 10.0 mi ENE 13.8 mph 19.6 mph N/A   Mostly Cloudy
1:45 PM 60.8 °F - 51.8 °F 72% 30.14 in 10.0 mi East 11.5 mph - N/A   Mostly Cloudy
2:50 PM 64.4 °F - 53.6 °F 68% 30.11 in 10.0 mi NE 11.5 mph - N/A   Partly Cloudy
3:45 PM 64.4 °F - 55.4 °F 73% 30.12 in 10.0 mi NE 9.2 mph - N/A   Mostly Cloudy
4:45 PM 62.6 °F - 51.8 °F 68% 30.11 in 10.0 mi NNW 9.2 mph - N/A   Mostly Cloudy
5:10 PM 62.6 °F - 51.8 °F 68% 30.12 in 10.0 mi NNW 15.0 mph - N/A   Mostly Cloudy
5:45 PM 60.8 °F - 50.0 °F 68% 30.12 in 10.0 mi NNW 17.3 mph - N/A   Mostly Cloudy
6:45 PM 53.6 °F - 42.8 °F 67% 30.13 in 10.0 mi NNW 17.3 mph 24.2 mph N/A   Mostly Cloudy
7:45 PM 53.6 °F - 44.6 °F 72% 30.15 in 10.0 mi NW 9.2 mph - N/A   Mostly Cloudy
8:45 PM 53.6 °F - 46.4 °F 77% 30.14 in 10.0 mi North 15.0 mph - N/A   Mostly Cloudy
9:50 PM 51.8 °F - 44.6 °F 76% 30.14 in 10.0 mi North 15.0 mph - N/A   Mostly Cloudy
10:30 PM 51.8 °F - 44.6 °F 76% 30.15 in 10.0 mi North 17.3 mph - N/A   Mostly Cloudy
10:55 PM 51.8 °F - 44.6 °F 76% 30.14 in 10.0 mi NNW 12.7 mph 18.4 mph N/A   Overcast
11:15 PM 51.8 °F - 44.6 °F 76% 30.15 in 10.0 mi NNW 15.0 mph 18.4 mph N/A   Overcast
11:35 PM 51.8 °F - 44.6 °F 76% 30.15 in 10.0 mi NNW 12.7 mph 17.3 mph N/A   Overcast
11:55 PM 51.8 °F - 44.6 °F 76% 30.15 in 10.0 mi NNW 16.1 mph 20.7 mph N/A   Overcast